Butler, PA

5:17 AM EDT on October 21, 2019 (GMT -0400)
Butler County-Scholter

Weather History for KBTP - June, 2019

Change the Weather History Date:

Tuesday, June 4, 2019

  Actual Average Record
Temperature  
Mean Temperature 54 °F -  
Max Temperature 73 °F 70 °F 87 °F (2002)
Min Temperature 37 °F 51 °F 35 °F (1977)
Degree Days  
Heating Degree Days 10    
Growing Degree Days 4 (Base 50)    
Moisture  
Dew Point 46 °F    
Average Humidity 67    
Maximum Humidity 100    
Minimum Humidity 43    
Precipitation  
Precipitation 0.10 in - - ()
Sea Level Pressure  
Sea Level Pressure 30.11 in    
Wind  
Wind Speed 3 mph (SSW)    
Max Wind Speed 10 mph    
Max Gust Speed -    
Visibility 10 miles    
Events      
Averages and records for this station are not official NWS values.
T = Trace of Precipitation, MM = Missing Value Source: NWS Daily Summary

Daily Weather History Graph

Daily Weather History Graph

Search for Another Location

Airport or City:

Astronomy

Jun. 04, 2019 Rise Set
Actual Time 5:49 AM EDT 8:46 PM EDT
Civil Twilight 5:16 AM EDT 9:19 PM EDT
Nautical Twilight 4:35 AM EDT 10:01 PM EDT
Astronomical Twilight 3:46 AM EDT 10:50 PM EDT
Moon 6:57 AM EDT (6/4) 10:13 PM EDT (6/4)
Length of Visible Light 16h 03m
Length of Day
14h 57m
New Moon, 2% of the Moon is Illuminated
Jun 4
New Moon
Jun 10
First Quarter
Jun 17
Full
Jun 25
Last Quarter
Jul 2
New

Hourly Weather History & Observations

Time (EDT) Temp. Dew Point Humidity Pressure Visibility Wind Dir Wind Speed Gust Speed Precip Events Conditions
12:56 AM 42.1 °F 39.0 °F 89% 30.19 in 10.0 mi Calm Calm - N/A   Clear
1:56 AM 41.0 °F 39.0 °F 93% 30.18 in 10.0 mi Calm Calm - N/A   Clear
2:56 AM 39.9 °F 39.0 °F 97% 30.17 in 10.0 mi Calm Calm - N/A   Clear
3:56 AM 39.9 °F 37.9 °F 93% 30.17 in 10.0 mi Calm Calm - N/A   Clear
4:56 AM 39.0 °F 37.9 °F 96% 30.19 in 10.0 mi Calm Calm - N/A   Clear
5:56 AM 37.9 °F 37.9 °F 100% 30.20 in 10.0 mi North - - N/A   Clear
6:56 AM 42.1 °F 41.0 °F 96% 30.21 in 10.0 mi Calm Calm - N/A   Clear
7:56 AM 51.1 °F 41.0 °F 68% 30.20 in 10.0 mi South 5.8 mph - N/A   Clear
8:56 AM 57.0 °F 43.0 °F 59% 30.20 in 10.0 mi South 5.8 mph - N/A   Clear
9:56 AM 61.0 °F 44.1 °F 54% 30.19 in 10.0 mi SSW 6.9 mph - N/A   Clear
10:56 AM 64.9 °F 46.0 °F 50% 30.17 in 10.0 mi SSW 10.4 mph - N/A   Clear
11:56 AM 68.0 °F 46.9 °F 47% 30.16 in 10.0 mi SW 9.2 mph - N/A   Clear
12:56 PM 69.1 °F 46.0 °F 44% 30.15 in 10.0 mi West 6.9 mph - N/A   Clear
1:56 PM 71.1 °F 48.0 °F 44% 30.12 in 10.0 mi South 5.8 mph - N/A   Clear
2:56 PM 72.0 °F 48.0 °F 43% 30.09 in 10.0 mi SSW 6.9 mph - N/A   Clear
3:56 PM 72.0 °F 50.0 °F 46% 30.06 in 10.0 mi Variable 5.8 mph - 0.02 in   Mostly Cloudy
4:56 PM 72.0 °F 51.1 °F 48% 30.04 in 10.0 mi SSW 9.2 mph - 0.01 in   Partly Cloudy
5:56 PM 71.1 °F 52.0 °F 51% 30.03 in 10.0 mi SW 6.9 mph - 0.01 in   Mostly Cloudy
6:56 PM 70.0 °F 53.1 °F 55% 30.02 in 10.0 mi SSW 6.9 mph - 0.02 in   Mostly Cloudy
7:56 PM 69.1 °F 54.0 °F 58% 30.00 in 10.0 mi SSW 4.6 mph - 0.01 in   Partly Cloudy
8:56 PM 66.9 °F 53.1 °F 61% 29.99 in 10.0 mi SSW 4.6 mph - 0.01 in   Mostly Cloudy
9:56 PM 64.9 °F 55.0 °F 70% 29.98 in 10.0 mi Calm Calm - 0.01 in   Clear
10:56 PM 63.0 °F 55.0 °F 75% 29.99 in 10.0 mi South 4.6 mph - 0.01 in   Mostly Cloudy
11:56 PM 64.9 °F 55.0 °F 70% 29.98 in 10.0 mi South 5.8 mph - N/A   Overcast